HUERBEL Weather Reports


Display with metric or nautical units.
time (UTC)temp
F
wind
direction
speed
MPH
gust
MPH
rain 1hr
in
rain 24hr
in
rain mn
in
humidity
%
barometer
mb
20260506080212 54 5 3.0 0.0 0.00 0.00 0.00 82 1007.4
20260506073211 54 345 3.0 0.0 0.00 0.00 0.00 82 1007.5
20260506070212 54 148 4.0 0.0 0.00 0.00 0.00 82 1007.9
20260506060210 49 109 3.0 0.0 0.00 0.00 0.00 90 1007.9
20260506050211 46 159 1.0 0.0 0.00 0.00 0.00 88 1008.0
20260506043211 46 159 1.0 0.0 0.00 0.00 0.00 88 1008.2
20260506040211 46 158 2.0 0.0 0.00 0.00 0.00 88 1008.4
20260506033211 46 184 3.0 0.0 0.00 0.00 0.00 87 1008.7
20260506030212 47 188 2.0 0.0 0.00 0.00 0.00 87 1008.8
20260506023211 47 182 2.0 0.0 0.00 0.00 0.00 87 1009.1
20260506020212 51 137 5.0 0.0 0.00 0.00 0.00 82 1009.1
20260506013211 51 242 1.0 0.0 0.00 0.00 0.00 82 1009.2
20260506010212 51 242 3.0 0.0 0.00 0.00 0.00 82 1009.6
20260506003209 51 153 2.0 0.0 0.00 0.00 0.00 82 1009.5
20260506000211 51 100 3.0 0.0 0.00 0.00 0.00 82 1009.8
20260505233209 51 188 2.0 0.0 0.00 0.00 0.00 82 1010.0
20260505230209 51 173 8.0 0.0 0.00 0.00 0.00 82 1010.1
20260505223210 53 211 7.0 0.0 0.00 0.00 0.00 81 1010.3
20260505220209 53 202 7.0 0.0 0.00 0.00 0.00 81 1010.4
20260505213211 53 234 9.0 0.0 0.00 0.00 0.04 80 1010.2
20260505210215 54 240 5.0 0.0 0.00 0.00 0.04 79 1010.1
20260505203209 55 221 10.0 0.0 0.00 0.00 0.04 79 1010.3
20260505200210 56 232 11.0 0.0 0.00 0.00 0.04 77 1010.4
20260505193209 59 331 17.0 0.0 0.00 0.00 0.01 71 1010.2
20260505190215 60 224 14.0 0.0 0.00 0.00 0.00 67 1009.2
20260505183212 60 219 8.0 0.0 0.00 0.00 0.00 65 1008.8
20260505180211 60 258 4.0 0.0 0.00 0.00 0.00 67 1008.4
20260505173210 61 315 7.0 0.0 0.00 0.00 0.00 66 1008.4
20260505170210 61 316 2.0 0.0 0.00 0.00 0.00 66 1007.9
20260505163211 62 254 2.0 0.0 0.00 0.00 0.00 59 1007.8
20260505153210 62 336 8.0 0.0 0.00 0.00 0.00 63 1008.4
20260505150215 63 343 8.0 0.0 0.00 0.00 0.00 64 1008.1
20260505140210 61 341 8.0 0.0 0.00 0.00 0.00 66 1008.2
20260505130210 61 351 4.0 0.0 0.00 0.00 0.00 75 1008.7
20260505123210 60 269 4.0 0.0 0.00 0.00 0.00 76 1009.0
20260505120210 60 251 7.0 0.0 0.00 0.00 0.00 75 1009.2
20260505113210 62 223 13.0 0.0 0.00 0.00 0.00 66 1008.9
20260505110211 63 355 6.0 0.0 0.00 0.00 0.00 66 1008.4
20260505100212 64 281 8.0 0.0 0.00 0.00 0.00 62 1008.6
20260505093212 66 271 6.0 0.0 0.00 0.00 0.00 56 1008.7
20260505090211 64 182 4.0 0.0 0.00 0.00 0.00 62 1009.1
20260505083211 60 164 4.0 0.0 0.00 0.00 0.00 70 1009.4